Location: Dammartin
(48.9032°N, 1.6195°E)
Time: 18:32:28
(UTC+00:00)

BlueWalker 3 - Pass Details

Date: 16 April 2024
Orbit: 482 x 494 km, 53.2° (Epoch: 22 May)

Event Time Altitude Azimuth Distance (km) Brightness Sun altitude
Rises 21:22:52 0° 236° (SW) 2,568 5.6 -22.0°
Reaches altitude 10° 21:25:03 10° 234° (SW) 1,691 4.6 -22.2°
Enters shadow 21:25:59 17° 232° (SW) 1,319 4.0 -22.3°
